Location: Padova
(45.4170°N, 11.8830°E)
Time: 09:47:42
(UTC+02:00)

ISS - Visible Passes

Search period start: 08 May 2021 00:00
Search period end: 18 May 2021 00:00
Orbit: 418 x 421 km, 51.6° (Epoch: 08 May)

Date Brightness Start Highest point End Pass type
(mag) Time Alt. Az. Time Alt. Az. Time Alt. Az.
08 May -2.5 02:49:24 39° N 02:49:24 39° N 02:52:27 10° NE visible
08 May -1.7 04:23:40 10° WNW 04:26:38 27° N 04:29:36 10° ENE visible
09 May -1.5 02:03:26 25° NE 02:03:26 25° NE 02:05:03 10° NE visible
09 May -1.7 03:36:22 12° WNW 03:39:03 27° N 03:42:01 10° ENE visible
09 May -2.4 05:13:10 10° NW 05:16:25 41° NNE 05:19:39 10° E visible
10 May -0.7 01:17:27 11° ENE 01:17:27 11° ENE 01:17:39 10° ENE visible
10 May -1.8 02:50:22 23° NW 02:51:27 29° N 02:54:28 10° NE visible
10 May -2.0 04:25:45 10° NW 04:28:52 33° NNE 04:32:00 10° E visible
11 May -1.9 02:04:21 31° N 02:04:21 31° N 02:06:59 10° NE visible
11 May -1.8 03:38:17 10° NW 03:41:18 29° N 03:44:20 10° ENE visible
12 May -1.3 01:18:16 20° NE 01:18:16 20° NE 01:19:33 10° NE visible
12 May -1.6 02:51:12 13° NW 02:53:43 27° N 02:56:41 10° ENE visible
12 May -3.0 04:27:40 10° NW 04:31:00 54° NNE 04:34:20 10° ESE visible
13 May -0.7 00:32:07 10° NE 00:32:07 10° NE 00:32:08 10° NE visible
13 May -1.6 02:05:02 22° NW 02:06:07 27° N 02:09:05 10° ENE visible
13 May -2.4 03:40:15 10° NW 03:43:29 41° NNE 03:46:43 10° E visible
14 May -1.7 01:18:39 28° N 01:18:39 28° N 01:21:32 10° NE visible
14 May -2.0 02:52:49 10° NW 02:55:57 33° NNE 02:59:04 10° E visible
14 May -3.8 04:29:36 10° WNW 04:32:58 69° SSW 04:36:19 10° SE visible
14 May -1.8 21:16:11 10° SSE 21:17:36 12° SE 21:19:00 10° ESE visible
14 May -3.9 22:50:32 10° SW 22:53:54 78° SSE 22:55:40 26° ENE visible
15 May -1.9 00:27:52 10° WNW 00:30:57 32° NNW 00:34:03 10° NE visible
15 May -1.7 02:05:21 10° NW 02:08:22 29° N 02:11:24 10° ENE visible
15 May -3.7 03:42:09 10° WNW 03:45:32 79° NNE 03:48:54 10° ESE visible
15 May -3.6 22:03:15 10° SW 22:06:30 49° SE 22:09:47 10° ENE visible
15 May -2.3 23:40:13 10° W 23:43:24 38° NNW 23:46:36 10° NE visible
16 May -1.6 01:17:49 10° WNW 01:20:47 27° N 01:23:44 10° ENE visible
16 May -3.1 02:54:43 10° WNW 02:58:04 55° NNE 03:01:24 10° ESE visible
16 May -2.8 04:31:47 10° W 04:34:43 27° SW 04:37:38 10° SSE visible
16 May -3.0 21:16:09 10° SSW 21:19:10 31° SE 21:22:11 10° ENE visible
16 May -2.8 22:52:35 10° W 22:55:52 50° NNW 22:59:10 10° NE visible
17 May -1.6 00:30:14 10° WNW 00:33:10 27° N 00:36:08 10° ENE visible
17 May -2.5 02:07:19 10° NW 02:10:33 41° NNE 02:13:46 10° E visible
17 May -3.5 03:44:10 10° WNW 03:47:24 43° SW 03:50:36 10° SE visible
17 May -3.5 22:05:01 10° WSW 22:08:23 71° NNW 22:11:46 10° ENE visible
17 May -1.7 23:42:35 10° WNW 23:45:35 28° N 23:48:35 10° NE visible
